Find Starlink 5131

NORAD ID: 53996 Int'l Des: 2022-125 Owner: SPXS Country: US Constellation: starlink operational
LEOCIRCULAR

現在のビュー

3D地球を読み込み中...

About Starlink 5131

Starlink 5131 (NORAD 53996) is a starlink constellation satellite (v1.5) launched Oct 5, 2022 by SPXS of US. It operates in LEO, CIRCULAR orbit with a mass of 305.00 kg.

次回通過

Passes for default location (London). Set your location on the main map for personalized predictions.

高度履歴

Loading altitude history...

軌道要素

1 53996U 22125AJ 26238.05787323 -.00000409 00000-0 -76202-5 0 9997
2 53996 53.1586 173.1261 0001314 82.6319 277.4822 15.08832289215030
Epoch: Aug 26, 2026 • Age: 7 hours

現在のステータス

高度 544.5 km
遠地点 / 近地点 N/A
速度 7.60 km/s
衛星直下点 48.97°N, 135.34°E
打ち上げ日 Oct 5, 2022
運用期間 3.8 years
タイプ internet

技術仕様

分類 Payload
質量 305.00 kg
乾燥質量 290.00 kg
総質量 305.00 kg
長さ 0.20 m
直径 2.80 m
スパン 9.00 m
形状 Box + pan
製造者 SPXS
バスタイプ Starlink
フェーズステータス In Orbit
所有者/国 SPXS/US

Most Searched